Check out our new BloomSky Weather System.

Active alerts

Galveston, TX
  Details for Galveston, TX Coastal Flood Advisory  +2 additional alerts
Houston, TX
  Details for Houston, TX Flash Flood Watch
Fort Bend, TX
  Details for Fort Bend, TX Flash Flood Watch


Thunder radar  blitzortung!


Rain radar more information rain snow radar


Visit our other weather sites:

Template documentation
and downloads

And another site



Weather Underground History page Text

Daily Summary for January 20, 2018 Units:  Both    English   Metric
« Previous Day
Next Day »
Daily Weekly Monthly Yearly Custom
  High: Low: Average:
Temperature: TemperatureF °F /  -17.8 °C 52.2 °F /  11.2 °C 61.7 °F /  16.5 °C
Dew Point: DewpointF °F /  -17.8 °C 51.6 °F /  10.9 °C 60 °F /  15.6 °C
Humidity: Humidity % 79 % 94 %
Wind Speed: WindSpeedMPH mph /  0 km/h - 2.2 mph /  3.5 km/h
Wind Gust: WindSpeedGustMPH mph /  0 km/h - -
Wind:- - SE
Pressure: PressureIn in /  0 hPa 29.99 in /  1015.5 hPa -
Precipitation: 0.02 in /  0.51 mm    
Historical Graphs
 
 
Tabular Data for January 20, 2018
Time Temperature Dew Point Pressure Wind Wind Speed Wind Gust Humidity Rainfall Rate (Hourly)
TemperatureF °F /  -17.8 °C DewpointF °F /  -17.8 °C PressureIn in /  0 hPa Calm     Humidity % HourlyPrecipIn in /  0 mm
00:02 52.2 °F /  11.2 °C 51.6 °F /  10.9 °C 30.13 in /  1020.2 hPa SE 1.0 mph /  1.6 km/h 2.0 mph /  3.2 km/h 98 % 0.00 in /  0 mm
00:07 52.2 °F /  11.2 °C 51.6 °F /  10.9 °C 30.13 in /  1020.2 hPa Calm   3.0 mph /  4.8 km/h 98 % 0.00 in /  0 mm
00:12 52.2 °F /  11.2 °C 51.6 °F /  10.9 °C 30.13 in /  1020.2 hPa SE 1.0 mph /  1.6 km/h 3.0 mph /  4.8 km/h 98 % 0.00 in /  0 mm
00:17 52.2 °F /  11.2 °C 51.6 °F /  10.9 °C 30.13 in /  1020.2 hPa Calm   3.0 mph /  4.8 km/h 98 % 0.00 in /  0 mm
00:22 52.2 °F /  11.2 °C 51.6 °F /  10.9 °C 30.13 in /  1020.2 hPa SE 1.0 mph /  1.6 km/h 2.0 mph /  3.2 km/h 98 % 0.00 in /  0 mm
00:27 52.2 °F /  11.2 °C 51.6 °F /  10.9 °C 30.13 in /  1020.2 hPa SE 2.0 mph /  3.2 km/h 3.0 mph /  4.8 km/h 98 % 0.00 in /  0 mm
00:32 52.2 °F /  11.2 °C 51.6 °F /  10.9 °C 30.12 in /  1019.9 hPa East 1.0 mph /  1.6 km/h 3.0 mph /  4.8 km/h 98 % 0.00 in /  0 mm
00:37 52.2 °F /  11.2 °C 51.6 °F /  10.9 °C 30.12 in /  1019.9 hPa Calm   3.0 mph /  4.8 km/h 98 % 0.00 in /  0 mm
00:42 52.2 °F /  11.2 °C 51.6 °F /  10.9 °C 30.12 in /  1019.9 hPa Calm   3.0 mph /  4.8 km/h 98 % 0.00 in /  0 mm
00:47 52.2 °F /  11.2 °C 51.6 °F /  10.9 °C 30.12 in /  1019.9 hPa Calm   2.0 mph /  3.2 km/h 98 % 0.00 in /  0 mm
00:52 52.2 °F /  11.2 °C 51.6 °F /  10.9 °C 30.12 in /  1019.9 hPa Calm   2.0 mph /  3.2 km/h 98 % 0.00 in /  0 mm
00:57 52.2 °F /  11.2 °C 51.6 °F /  10.9 °C 30.11 in /  1019.5 hPa Calm   2.0 mph /  3.2 km/h 98 % 0.00 in /  0 mm
01:02 52.2 °F /  11.2 °C 51.6 °F /  10.9 °C 30.11 in /  1019.5 hPa Calm   1.0 mph /  1.6 km/h 98 % 0.00 in /  0 mm
01:07 52.2 °F /  11.2 °C 51.6 °F /  10.9 °C 30.11 in /  1019.5 hPa ESE 1.0 mph /  1.6 km/h 2.0 mph /  3.2 km/h 98 % 0.00 in /  0 mm
01:12 52.2 °F /  11.2 °C 51.6 °F /  10.9 °C 30.11 in /  1019.5 hPa SE 1.0 mph /  1.6 km/h 2.0 mph /  3.2 km/h 98 % 0.00 in /  0 mm
01:17 52.2 °F /  11.2 °C 51.6 °F /  10.9 °C 30.11 in /  1019.5 hPa East 2.0 mph /  3.2 km/h 3.0 mph /  4.8 km/h 98 % 0.00 in /  0 mm
01:22 52.2 °F /  11.2 °C 51.6 °F /  10.9 °C 30.10 in /  1019.2 hPa Calm   3.0 mph /  4.8 km/h 98 % 0.00 in /  0 mm
01:27 52.2 °F /  11.2 °C 51.6 °F /  10.9 °C 30.10 in /  1019.2 hPa SSE 1.0 mph /  1.6 km/h 3.0 mph /  4.8 km/h 98 % 0.00 in /  0 mm
01:32 52.2 °F /  11.2 °C 51.6 °F /  10.9 °C 30.10 in /  1019.2 hPa Calm   3.0 mph /  4.8 km/h 98 % 0.00 in /  0 mm
01:37 52.2 °F /  11.2 °C 51.6 °F /  10.9 °C 30.10 in /  1019.2 hPa Calm   3.0 mph /  4.8 km/h 98 % 0.00 in /  0 mm
01:42 52.2 °F /  11.2 °C 51.6 °F /  10.9 °C 30.10 in /  1019.2 hPa Calm   3.0 mph /  4.8 km/h 98 % 0.00 in /  0 mm
01:47 52.2 °F /  11.2 °C 51.6 °F /  10.9 °C 30.10 in /  1019.2 hPa Calm   3.0 mph /  4.8 km/h 98 % 0.00 in /  0 mm
01:52 52.3 °F /  11.3 °C 51.8 °F /  11 °C 30.10 in /  1019.2 hPa Calm   2.0 mph /  3.2 km/h 98 % 0.00 in /  0 mm
01:57 52.3 °F /  11.3 °C 51.8 °F /  11 °C 30.10 in /  1019.2 hPa ESE 1.0 mph /  1.6 km/h 3.0 mph /  4.8 km/h 98 % 0.00 in /  0 mm
02:02 52.3 °F /  11.3 °C 51.8 °F /  11 °C 30.10 in /  1019.2 hPa Calm   3.0 mph /  4.8 km/h 98 % 0.00 in /  0 mm
02:07 52.3 °F /  11.3 °C 51.8 °F /  11 °C 30.10 in /  1019.2 hPa SE 2.0 mph /  3.2 km/h 3.0 mph /  4.8 km/h 98 % 0.00 in /  0 mm
02:12 52.3 °F /  11.3 °C 51.8 °F /  11 °C 30.09 in /  1018.8 hPa Calm   2.0 mph /  3.2 km/h 98 % 0.00 in /  0 mm
02:17 52.3 °F /  11.3 °C 51.8 °F /  11 °C 30.09 in /  1018.8 hPa Calm   2.0 mph /  3.2 km/h 98 % 0.00 in /  0 mm
02:22 52.3 °F /  11.3 °C 51.8 °F /  11 °C 30.09 in /  1018.8 hPa Calm   2.0 mph /  3.2 km/h 98 % 0.00 in /  0 mm
02:27 52.3 °F /  11.3 °C 51.8 °F /  11 °C 30.10 in /  1019.2 hPa SE 1.0 mph /  1.6 km/h 1.0 mph /  1.6 km/h 98 % 0.00 in /  0 mm
02:32 52.3 °F /  11.3 °C 51.8 °F /  11 °C 30.10 in /  1019.2 hPa Calm   1.0 mph /  1.6 km/h 98 % 0.00 in /  0 mm
02:37 52.3 °F /  11.3 °C 51.8 °F /  11 °C 30.09 in /  1018.8 hPa ESE 1.0 mph /  1.6 km/h 2.0 mph /  3.2 km/h 98 % 0.00 in /  0 mm
02:42 52.3 °F /  11.3 °C 51.8 °F /  11 °C 30.09 in /  1018.8 hPa Calm   2.0 mph /  3.2 km/h 98 % 0.00 in /  0 mm
02:47 52.3 °F /  11.3 °C 51.8 °F /  11 °C 30.09 in /  1018.8 hPa Calm   2.0 mph /  3.2 km/h 98 % 0.00 in /  0 mm
02:52 52.3 °F /  11.3 °C 51.8 °F /  11 °C 30.09 in /  1018.8 hPa Calm   1.0 mph /  1.6 km/h 98 % 0.00 in /  0 mm
02:57 52.5 °F /  11.4 °C 52.0 °F /  11.1 °C 30.09 in /  1018.8 hPa Calm   2.0 mph /  3.2 km/h 98 % 0.00 in /  0 mm
02:59 52.5 °F /  11.4 °C 52.0 °F /  11.1 °C 30.09 in /  1018.8 hPa Calm   2.0 mph /  3.2 km/h 98 % 0.00 in /  0 mm
03:04 52.5 °F /  11.4 °C 52.0 °F /  11.1 °C 30.09 in /  1018.8 hPa Calm   2.0 mph /  3.2 km/h 98 % 0.00 in /  0 mm
03:09 52.5 °F /  11.4 °C 52.0 °F /  11.1 °C 30.09 in /  1018.8 hPa ESE 2.0 mph /  3.2 km/h 2.0 mph /  3.2 km/h 98 % 0.00 in /  0 mm
03:14 52.5 °F /  11.4 °C 52.0 °F /  11.1 °C 30.09 in /  1018.8 hPa SE 1.0 mph /  1.6 km/h 2.0 mph /  3.2 km/h 98 % 0.00 in /  0 mm
03:19 52.5 °F /  11.4 °C 52.0 °F /  11.1 °C 30.09 in /  1018.8 hPa Calm   2.0 mph /  3.2 km/h 98 % 0.00 in /  0 mm
03:24 52.5 °F /  11.4 °C 52.0 °F /  11.1 °C 30.09 in /  1018.8 hPa Calm   2.0 mph /  3.2 km/h 98 % 0.00 in /  0 mm
03:29 52.5 °F /  11.4 °C 52.2 °F /  11.2 °C 30.09 in /  1018.8 hPa Calm   2.0 mph /  3.2 km/h 99 % 0.00 in /  0 mm
03:34 52.5 °F /  11.4 °C 52.2 °F /  11.2 °C 30.09 in /  1018.8 hPa Calm   2.0 mph /  3.2 km/h 99 % 0.00 in /  0 mm
03:44 52.7 °F /  11.5 °C 52.3 °F /  11.3 °C 30.09 in /  1018.8 hPa Calm   2.0 mph /  3.2 km/h 99 % 0.00 in /  0 mm
03:49 52.7 °F /  11.5 °C 52.3 °F /  11.3 °C 30.09 in /  1018.8 hPa Calm   1.0 mph /  1.6 km/h 99 % 0.00 in /  0 mm
03:54 52.7 °F /  11.5 °C 52.3 °F /  11.3 °C 30.09 in /  1018.8 hPa Calm   1.0 mph /  1.6 km/h 99 % 0.00 in /  0 mm
04:04 52.7 °F /  11.5 °C 52.3 °F /  11.3 °C 30.08 in /  1018.5 hPa Calm   1.0 mph /  1.6 km/h 99 % 0.00 in /  0 mm
04:09 52.7 °F /  11.5 °C 52.3 °F /  11.3 °C 30.08 in /  1018.5 hPa Calm   2.0 mph /  3.2 km/h 99 % 0.00 in /  0 mm
04:14 52.7 °F /  11.5 °C 52.3 °F /  11.3 °C 30.08 in /  1018.5 hPa Calm   2.0 mph /  3.2 km/h 99 % 0.00 in /  0 mm
04:19 52.7 °F /  11.5 °C 52.3 °F /  11.3 °C 30.08 in /  1018.5 hPa Calm   2.0 mph /  3.2 km/h 99 % 0.00 in /  0 mm
04:24 52.7 °F /  11.5 °C 52.3 °F /  11.3 °C 30.08 in /  1018.5 hPa Calm   1.0 mph /  1.6 km/h 99 % 0.00 in /  0 mm
04:29 52.7 °F /  11.5 °C 52.3 °F /  11.3 °C 30.07 in /  1018.2 hPa Calm   1.0 mph /  1.6 km/h 99 % 0.00 in /  0 mm
04:34 52.9 °F /  11.6 °C 52.5 °F /  11.4 °C 30.07 in /  1018.2 hPa Calm   1.0 mph /  1.6 km/h 99 % 0.00 in /  0 mm
04:39 52.9 °F /  11.6 °C 52.5 °F /  11.4 °C 30.07 in /  1018.2 hPa Calm   1.0 mph /  1.6 km/h 99 % 0.00 in /  0 mm
04:44 52.9 °F /  11.6 °C 52.5 °F /  11.4 °C 30.07 in /  1018.2 hPa Calm   1.0 mph /  1.6 km/h 99 % 0.00 in /  0 mm
04:49 52.9 °F /  11.6 °C 52.5 °F /  11.4 °C 30.06 in /  1017.8 hPa ESE 1.0 mph /  1.6 km/h 3.0 mph /  4.8 km/h 99 % 0.00 in /  0 mm
04:54 52.9 °F /  11.6 °C 52.5 °F /  11.4 °C 30.06 in /  1017.8 hPa Calm   3.0 mph /  4.8 km/h 99 % 0.00 in /  0 mm
04:59 52.9 °F /  11.6 °C 52.5 °F /  11.4 °C 30.06 in /  1017.8 hPa East 1.0 mph /  1.6 km/h 4.0 mph /  6.4 km/h 99 % 0.00 in /  0 mm
05:04 53.1 °F /  11.7 °C 52.7 °F /  11.5 °C 30.07 in /  1018.2 hPa Calm   4.0 mph /  6.4 km/h 99 % 0.00 in /  0 mm
05:09 53.1 °F /  11.7 °C 52.7 °F /  11.5 °C 30.07 in /  1018.2 hPa Calm   4.0 mph /  6.4 km/h 99 % 0.00 in /  0 mm
05:14 53.1 °F /  11.7 °C 52.7 °F /  11.5 °C 30.06 in /  1017.8 hPa Calm   2.0 mph /  3.2 km/h 99 % 0.00 in /  0 mm
05:19 53.1 °F /  11.7 °C 52.7 °F /  11.5 °C 30.06 in /  1017.8 hPa SE 1.0 mph /  1.6 km/h 2.0 mph /  3.2 km/h 99 % 0.00 in /  0 mm
05:24 53.2 °F /  11.8 °C 52.9 °F /  11.6 °C 30.06 in /  1017.8 hPa Calm   2.0 mph /  3.2 km/h 99 % 0.00 in /  0 mm
05:30 53.2 °F /  11.8 °C 52.9 °F /  11.6 °C 30.06 in /  1017.8 hPa ESE 1.0 mph /  1.6 km/h 2.0 mph /  3.2 km/h 99 % 0.00 in /  0 mm
05:35 53.2 °F /  11.8 °C 52.9 °F /  11.6 °C 30.07 in /  1018.2 hPa SE 1.0 mph /  1.6 km/h 3.0 mph /  4.8 km/h 99 % 0.00 in /  0 mm
05:40 53.2 °F /  11.8 °C 52.9 °F /  11.6 °C 30.07 in /  1018.2 hPa Calm   3.0 mph /  4.8 km/h 99 % 0.00 in /  0 mm
05:45 53.2 °F /  11.8 °C 52.9 °F /  11.6 °C 30.07 in /  1018.2 hPa SSE 1.0 mph /  1.6 km/h 3.0 mph /  4.8 km/h 99 % 0.00 in /  0 mm
05:50 53.2 °F /  11.8 °C 52.9 °F /  11.6 °C 30.07 in /  1018.2 hPa SE 1.0 mph /  1.6 km/h 3.0 mph /  4.8 km/h 99 % 0.00 in /  0 mm
05:55 53.2 °F /  11.8 °C 52.9 °F /  11.6 °C 30.07 in /  1018.2 hPa SE 1.0 mph /  1.6 km/h 2.0 mph /  3.2 km/h 99 % 0.00 in /  0 mm
06:00 53.2 °F /  11.8 °C 52.9 °F /  11.6 °C 30.06 in /  1017.8 hPa Calm   2.0 mph /  3.2 km/h 99 % 0.00 in /  0 mm
06:05 53.1 °F /  11.7 °C 52.7 °F /  11.5 °C 30.07 in /  1018.2 hPa Calm   3.0 mph /  4.8 km/h 99 % 0.00 in /  0 mm
06:10 53.1 °F /  11.7 °C 52.7 °F /  11.5 °C 30.07 in /  1018.2 hPa Calm   3.0 mph /  4.8 km/h 99 % 0.00 in /  0 mm
06:15 53.1 °F /  11.7 °C 52.7 °F /  11.5 °C 30.07 in /  1018.2 hPa SE 1.0 mph /  1.6 km/h 3.0 mph /  4.8 km/h 99 % 0.00 in /  0 mm
06:20 53.1 °F /  11.7 °C 52.7 °F /  11.5 °C 30.07 in /  1018.2 hPa Calm   3.0 mph /  4.8 km/h 99 % 0.00 in /  0 mm
06:25 53.1 °F /  11.7 °C 52.7 °F /  11.5 °C 30.06 in /  1017.8 hPa ESE 1.0 mph /  1.6 km/h 3.0 mph /  4.8 km/h 99 % 0.00 in /  0 mm
06:30 53.1 °F /  11.7 °C 52.7 °F /  11.5 °C 30.07 in /  1018.2 hPa Calm   2.0 mph /  3.2 km/h 99 % 0.00 in /  0 mm
06:35 53.1 °F /  11.7 °C 52.7 °F /  11.5 °C 30.07 in /  1018.2 hPa East 1.0 mph /  1.6 km/h 2.0 mph /  3.2 km/h 99 % 0.00 in /  0 mm
06:40 53.1 °F /  11.7 °C 52.7 °F /  11.5 °C 30.07 in /  1018.2 hPa Calm   2.0 mph /  3.2 km/h 99 % 0.00 in /  0 mm
06:45 53.1 °F /  11.7 °C 52.7 °F /  11.5 °C 30.07 in /  1018.2 hPa Calm   2.0 mph /  3.2 km/h 99 % 0.00 in /  0 mm
06:50 53.1 °F /  11.7 °C 52.7 °F /  11.5 °C 30.07 in /  1018.2 hPa East 1.0 mph /  1.6 km/h 3.0 mph /  4.8 km/h 99 % 0.00 in /  0 mm
06:55 53.1 °F /  11.7 °C 52.7 °F /  11.5 °C 30.07 in /  1018.2 hPa Calm   3.0 mph /  4.8 km/h 99 % 0.00 in /  0 mm
07:00 53.1 °F /  11.7 °C 52.7 °F /  11.5 °C 30.07 in /  1018.2 hPa Calm   3.0 mph /  4.8 km/h 99 % 0.00 in /  0 mm
07:05 53.1 °F /  11.7 °C 52.7 °F /  11.5 °C 30.07 in /  1018.2 hPa Calm   2.0 mph /  3.2 km/h 99 % 0.00 in /  0 mm
07:10 53.1 °F /  11.7 °C 52.7 °F /  11.5 °C 30.07 in /  1018.2 hPa ESE 1.0 mph /  1.6 km/h 2.0 mph /  3.2 km/h 99 % 0.00 in /  0 mm
07:15 53.1 °F /  11.7 °C 52.7 °F /  11.5 °C 30.07 in /  1018.2 hPa SE 1.0 mph /  1.6 km/h 2.0 mph /  3.2 km/h 99 % 0.00 in /  0 mm
07:20 53.1 °F /  11.7 °C 52.7 °F /  11.5 °C 30.08 in /  1018.5 hPa ESE 1.0 mph /  1.6 km/h 3.0 mph /  4.8 km/h 99 % 0.00 in /  0 mm
07:25 53.1 °F /  11.7 °C 52.7 °F /  11.5 °C 30.08 in /  1018.5 hPa Calm   3.0 mph /  4.8 km/h 99 % 0.00 in /  0 mm
07:30 53.2 °F /  11.8 °C 52.9 °F /  11.6 °C 30.08 in /  1018.5 hPa Calm   3.0 mph /  4.8 km/h 99 % 0.00 in /  0 mm
07:35 53.2 °F /  11.8 °C 52.9 °F /  11.6 °C 30.08 in /  1018.5 hPa Calm   2.0 mph /  3.2 km/h 99 % 0.00 in /  0 mm
07:40 53.2 °F /  11.8 °C 52.9 °F /  11.6 °C 30.08 in /  1018.5 hPa Calm   2.0 mph /  3.2 km/h 99 % 0.00 in /  0 mm
07:45 53.4 °F /  11.9 °C 53.1 °F /  11.7 °C 30.09 in /  1018.8 hPa East 1.0 mph /  1.6 km/h 2.0 mph /  3.2 km/h 99 % 0.01 in /  0.25 mm
07:50 53.4 °F /  11.9 °C 53.1 °F /  11.7 °C 30.09 in /  1018.8 hPa Calm   2.0 mph /  3.2 km/h 99 % 0.01 in /  0.25 mm
07:55 53.4 °F /  11.9 °C 53.1 °F /  11.7 °C 30.09 in /  1018.8 hPa Calm   2.0 mph /  3.2 km/h 99 % 0.01 in /  0.25 mm
08:00 53.6 °F /  12 °C 53.2 °F /  11.8 °C 30.09 in /  1018.8 hPa Calm   1.0 mph /  1.6 km/h 99 % 0.01 in /  0.25 mm
08:05 53.8 °F /  12.1 °C 53.4 °F /  11.9 °C 30.09 in /  1018.8 hPa Calm   1.0 mph /  1.6 km/h 99 % 0.01 in /  0.25 mm
08:10 54.0 °F /  12.2 °C 53.6 °F /  12 °C 30.09 in /  1018.8 hPa Calm   1.0 mph /  1.6 km/h 99 % 0.01 in /  0.25 mm
08:15 54.1 °F /  12.3 °C 53.8 °F /  12.1 °C 30.09 in /  1018.8 hPa Calm   2.0 mph /  3.2 km/h 99 % 0.01 in /  0.25 mm
08:20 54.5 °F /  12.5 °C 54.1 °F /  12.3 °C 30.09 in /  1018.8 hPa ESE 2.0 mph /  3.2 km/h 3.0 mph /  4.8 km/h 99 % 0.01 in /  0.25 mm
08:25 54.7 °F /  12.6 °C 54.3 °F /  12.4 °C 30.09 in /  1018.8 hPa Calm   3.0 mph /  4.8 km/h 99 % 0.01 in /  0.25 mm
08:30 54.9 °F /  12.7 °C 54.5 °F /  12.5 °C 30.09 in /  1018.8 hPa East 1.0 mph /  1.6 km/h 3.0 mph /  4.8 km/h 99 % 0.01 in /  0.25 mm
08:35 55.0 °F /  12.8 °C 54.7 °F /  12.6 °C 30.09 in /  1018.8 hPa ENE 2.0 mph /  3.2 km/h 3.0 mph /  4.8 km/h 99 % 0.01 in /  0.25 mm
08:40 55.0 °F /  12.8 °C 54.7 °F /  12.6 °C 30.09 in /  1018.8 hPa ENE 1.0 mph /  1.6 km/h 3.0 mph /  4.8 km/h 99 % 0.01 in /  0.25 mm
08:45 55.0 °F /  12.8 °C 54.7 °F /  12.6 °C 30.09 in /  1018.8 hPa SE 1.0 mph /  1.6 km/h 3.0 mph /  4.8 km/h 99 % 0.00 in /  0 mm
08:51 55.2 °F /  12.9 °C 54.9 °F /  12.7 °C 30.09 in /  1018.8 hPa Calm   3.0 mph /  4.8 km/h 99 % 0.00 in /  0 mm
08:56 55.2 °F /  12.9 °C 54.9 °F /  12.7 °C 30.09 in /  1018.8 hPa ENE 1.0 mph /  1.6 km/h 2.0 mph /  3.2 km/h 99 % 0.00 in /  0 mm
09:01 55.6 °F /  13.1 °C 55.6 °F /  13.1 °C 30.10 in /  1019.2 hPa Calm   2.0 mph /  3.2 km/h 100 % 0.00 in /  0 mm
09:06 55.8 °F /  13.2 °C 55.4 °F /  13 °C 30.10 in /  1019.2 hPa Calm   2.0 mph /  3.2 km/h 99 % 0.01 in /  0.25 mm
09:11 55.8 °F /  13.2 °C 55.4 °F /  13 °C 30.10 in /  1019.2 hPa Calm   2.0 mph /  3.2 km/h 99 % 0.01 in /  0.25 mm
09:16 55.8 °F /  13.2 °C 55.4 °F /  13 °C 30.10 in /  1019.2 hPa Calm   2.0 mph /  3.2 km/h 99 % 0.01 in /  0.25 mm
09:21 56.3 °F /  13.5 °C 56.3 °F /  13.5 °C 30.10 in /  1019.2 hPa Calm   2.0 mph /  3.2 km/h 100 % 0.01 in /  0.25 mm
09:26 56.7 °F /  13.7 °C 56.7 °F /  13.7 °C 30.10 in /  1019.2 hPa Calm   2.0 mph /  3.2 km/h 100 % 0.01 in /  0.25 mm
09:31 57.0 °F /  13.9 °C 57.0 °F /  13.9 °C 30.10 in /  1019.2 hPa Calm   3.0 mph /  4.8 km/h 100 % 0.01 in /  0.25 mm
09:36 57.2 °F /  14 °C 57.2 °F /  14 °C 30.10 in /  1019.2 hPa SE 2.0 mph /  3.2 km/h 4.0 mph /  6.4 km/h 100 % 0.01 in /  0.25 mm
09:41 57.6 °F /  14.2 °C 57.6 °F /  14.2 °C 30.11 in /  1019.5 hPa Calm   4.0 mph /  6.4 km/h 100 % 0.01 in /  0.25 mm
09:46 57.7 °F /  14.3 °C 57.7 °F /  14.3 °C 30.11 in /  1019.5 hPa ESE 2.0 mph /  3.2 km/h 4.0 mph /  6.4 km/h 100 % 0.01 in /  0.25 mm
09:51 58.1 °F /  14.5 °C 58.1 °F /  14.5 °C 30.11 in /  1019.5 hPa Calm   4.0 mph /  6.4 km/h 100 % 0.01 in /  0.25 mm
09:56 58.6 °F /  14.8 °C 58.6 °F /  14.8 °C 30.11 in /  1019.5 hPa ESE 1.0 mph /  1.6 km/h 3.0 mph /  4.8 km/h 100 % 0.01 in /  0.25 mm
10:01 58.6 °F /  14.8 °C 58.6 °F /  14.8 °C 30.11 in /  1019.5 hPa SSE 1.0 mph /  1.6 km/h 4.0 mph /  6.4 km/h 100 % 0.01 in /  0.25 mm
10:06 58.6 °F /  14.8 °C 58.6 °F /  14.8 °C 30.11 in /  1019.5 hPa ESE 2.0 mph /  3.2 km/h 5.0 mph /  8 km/h 100 % 0.00 in /  0 mm
10:11 58.8 °F /  14.9 °C 58.8 °F /  14.9 °C 30.11 in /  1019.5 hPa South 3.0 mph /  4.8 km/h 5.0 mph /  8 km/h 100 % 0.00 in /  0 mm
10:16 59.0 °F /  15 °C 59.0 °F /  15 °C 30.11 in /  1019.5 hPa South 2.0 mph /  3.2 km/h 5.0 mph /  8 km/h 100 % 0.00 in /  0 mm
10:21 59.2 °F /  15.1 °C 59.2 °F /  15.1 °C 30.11 in /  1019.5 hPa ESE 4.0 mph /  6.4 km/h 4.0 mph /  6.4 km/h 100 % 0.00 in /  0 mm
10:26 59.5 °F /  15.3 °C 59.5 °F /  15.3 °C 30.10 in /  1019.2 hPa SE 3.0 mph /  4.8 km/h 6.0 mph /  9.7 km/h 100 % 0.00 in /  0 mm
10:31 60.1 °F /  15.6 °C 60.1 °F /  15.6 °C 30.11 in /  1019.5 hPa SE 2.0 mph /  3.2 km/h 6.0 mph /  9.7 km/h 100 % 0.00 in /  0 mm
10:36 60.4 °F /  15.8 °C 60.4 °F /  15.8 °C 30.10 in /  1019.2 hPa SSE 2.0 mph /  3.2 km/h 6.0 mph /  9.7 km/h 100 % 0.00 in /  0 mm
10:41 61.2 °F /  16.2 °C 61.2 °F /  16.2 °C 30.10 in /  1019.2 hPa SE 5.0 mph /  8 km/h 5.0 mph /  8 km/h 100 % 0.00 in /  0 mm
10:46 61.2 °F /  16.2 °C 61.2 °F /  16.2 °C 30.10 in /  1019.2 hPa ESE 3.0 mph /  4.8 km/h 7.0 mph /  11.3 km/h 100 % 0.00 in /  0 mm
10:51 61.9 °F /  16.6 °C 61.9 °F /  16.6 °C 30.10 in /  1019.2 hPa SE 4.0 mph /  6.4 km/h 7.0 mph /  11.3 km/h 100 % 0.00 in /  0 mm
10:56 62.1 °F /  16.7 °C 62.1 °F /  16.7 °C 30.10 in /  1019.2 hPa SE 4.0 mph /  6.4 km/h 7.0 mph /  11.3 km/h 100 % 0.00 in /  0 mm
11:01 62.4 °F /  16.9 °C 62.4 °F /  16.9 °C 30.10 in /  1019.2 hPa SSE 6.0 mph /  9.7 km/h 7.0 mph /  11.3 km/h 100 % 0.00 in /  0 mm
11:06 62.8 °F /  17.1 °C 62.8 °F /  17.1 °C 30.10 in /  1019.2 hPa SSW 4.0 mph /  6.4 km/h 8.0 mph /  12.9 km/h 100 % 0.00 in /  0 mm
11:11 63.3 °F /  17.4 °C 63.3 °F /  17.4 °C 30.09 in /  1018.8 hPa South 2.0 mph /  3.2 km/h 8.0 mph /  12.9 km/h 100 % 0.00 in /  0 mm
11:16 63.7 °F /  17.6 °C 63.7 °F /  17.6 °C 30.09 in /  1018.8 hPa SSE 2.0 mph /  3.2 km/h 8.0 mph /  12.9 km/h 100 % 0.00 in /  0 mm
11:21 64.0 °F /  17.8 °C 64.0 °F /  17.8 °C 30.09 in /  1018.8 hPa SE 3.0 mph /  4.8 km/h 8.0 mph /  12.9 km/h 100 % 0.00 in /  0 mm
11:26 64.6 °F /  18.1 °C 64.6 °F /  18.1 °C 30.09 in /  1018.8 hPa SSE 2.0 mph /  3.2 km/h 8.0 mph /  12.9 km/h 100 % 0.00 in /  0 mm
11:31 64.8 °F /  18.2 °C 64.4 °F /  18 °C 30.09 in /  1018.8 hPa SSE 3.0 mph /  4.8 km/h 7.0 mph /  11.3 km/h 99 % 0.00 in /  0 mm
11:36 64.8 °F /  18.2 °C 64.4 °F /  18 °C 30.09 in /  1018.8 hPa SSE 5.0 mph /  8 km/h 8.0 mph /  12.9 km/h 99 % 0.00 in /  0 mm
11:41 65.1 °F /  18.4 °C 64.8 °F /  18.2 °C 30.08 in /  1018.5 hPa SW 3.0 mph /  4.8 km/h 9.0 mph /  14.5 km/h 99 % 0.00 in /  0 mm
11:46 65.5 °F /  18.6 °C 65.1 °F /  18.4 °C 30.08 in /  1018.5 hPa SE 3.0 mph /  4.8 km/h 9.0 mph /  14.5 km/h 99 % 0.00 in /  0 mm
11:51 65.8 °F /  18.8 °C 65.3 °F /  18.5 °C 30.08 in /  1018.5 hPa SE 3.0 mph /  4.8 km/h 9.0 mph /  14.5 km/h 98 % 0.00 in /  0 mm
11:56 65.8 °F /  18.8 °C 64.9 °F /  18.3 °C 30.08 in /  1018.5 hPa SE 6.0 mph /  9.7 km/h 8.0 mph /  12.9 km/h 97 % 0.00 in /  0 mm
12:01 66.2 °F /  19 °C 65.3 °F /  18.5 °C 30.08 in /  1018.5 hPa ESE 3.0 mph /  4.8 km/h 7.0 mph /  11.3 km/h 97 % 0.00 in /  0 mm
12:06 66.4 °F /  19.1 °C 65.1 °F /  18.4 °C 30.07 in /  1018.2 hPa ESE 4.0 mph /  6.4 km/h 8.0 mph /  12.9 km/h 96 % 0.00 in /  0 mm
12:12 66.9 °F /  19.4 °C 65.7 °F /  18.7 °C 30.07 in /  1018.2 hPa South 5.0 mph /  8 km/h 8.0 mph /  12.9 km/h 96 % 0.00 in /  0 mm
12:17 67.1 °F /  19.5 °C 65.3 °F /  18.5 °C 30.06 in /  1017.8 hPa South 3.0 mph /  4.8 km/h 9.0 mph /  14.5 km/h 94 % 0.00 in /  0 mm
12:22 67.5 °F /  19.7 °C 65.3 °F /  18.5 °C 30.06 in /  1017.8 hPa SE 1.0 mph /  1.6 km/h 9.0 mph /  14.5 km/h 93 % 0.00 in /  0 mm
12:27 67.6 °F /  19.8 °C 65.3 °F /  18.5 °C 30.06 in /  1017.8 hPa SSE 3.0 mph /  4.8 km/h 9.0 mph /  14.5 km/h 92 % 0.00 in /  0 mm
12:32 67.6 °F /  19.8 °C 64.9 °F /  18.3 °C 30.06 in /  1017.8 hPa SE 2.0 mph /  3.2 km/h 7.0 mph /  11.3 km/h 91 % 0.00 in /  0 mm
12:37 67.8 °F /  19.9 °C 65.1 °F /  18.4 °C 30.06 in /  1017.8 hPa SE 2.0 mph /  3.2 km/h 7.0 mph /  11.3 km/h 91 % 0.00 in /  0 mm
12:42 67.8 °F /  19.9 °C 65.1 °F /  18.4 °C 30.05 in /  1017.5 hPa SE 2.0 mph /  3.2 km/h 7.0 mph /  11.3 km/h 91 % 0.00 in /  0 mm
12:47 68.0 °F /  20 °C 65.3 °F /  18.5 °C 30.05 in /  1017.5 hPa ESE 2.0 mph /  3.2 km/h 6.0 mph /  9.7 km/h 91 % 0.00 in /  0 mm
12:52 68.0 °F /  20 °C 65.3 °F /  18.5 °C 30.05 in /  1017.5 hPa SE 2.0 mph /  3.2 km/h 6.0 mph /  9.7 km/h 91 % 0.00 in /  0 mm
12:57 68.2 °F /  20.1 °C 65.5 °F /  18.6 °C 30.04 in /  1017.2 hPa Calm   6.0 mph /  9.7 km/h 91 % 0.00 in /  0 mm
13:02 68.5 °F /  20.3 °C 65.8 °F /  18.8 °C 30.04 in /  1017.2 hPa ESE 4.0 mph /  6.4 km/h 6.0 mph /  9.7 km/h 91 % 0.00 in /  0 mm
13:07 68.7 °F /  20.4 °C 65.7 °F /  18.7 °C 30.04 in /  1017.2 hPa SE 5.0 mph /  8 km/h 6.0 mph /  9.7 km/h 90 % 0.00 in /  0 mm
13:12 68.7 °F /  20.4 °C 65.7 °F /  18.7 °C 30.03 in /  1016.8 hPa East 1.0 mph /  1.6 km/h 7.0 mph /  11.3 km/h 90 % 0.00 in /  0 mm
13:17 68.7 °F /  20.4 °C 65.7 °F /  18.7 °C 30.03 in /  1016.8 hPa SE 2.0 mph /  3.2 km/h 7.0 mph /  11.3 km/h 90 % 0.00 in /  0 mm
13:22 68.7 °F /  20.4 °C 65.7 °F /  18.7 °C 30.03 in /  1016.8 hPa South 6.0 mph /  9.7 km/h 7.0 mph /  11.3 km/h 90 % 0.00 in /  0 mm
13:27 68.7 °F /  20.4 °C 65.7 °F /  18.7 °C 30.03 in /  1016.8 hPa South 2.0 mph /  3.2 km/h 7.0 mph /  11.3 km/h 90 % 0.00 in /  0 mm
13:32 68.7 °F /  20.4 °C 65.7 °F /  18.7 °C 30.03 in /  1016.8 hPa SSE 4.0 mph /  6.4 km/h 7.0 mph /  11.3 km/h 90 % 0.00 in /  0 mm
13:37 68.9 °F /  20.5 °C 66.2 °F /  19 °C 30.02 in /  1016.5 hPa SE 3.0 mph /  4.8 km/h 7.0 mph /  11.3 km/h 91 % 0.00 in /  0 mm
13:42 69.1 °F /  20.6 °C 66.0 °F /  18.9 °C 30.02 in /  1016.5 hPa SSE 3.0 mph /  4.8 km/h 7.0 mph /  11.3 km/h 90 % 0.00 in /  0 mm
13:47 69.4 °F /  20.8 °C 66.7 °F /  19.3 °C 30.02 in /  1016.5 hPa SSE 2.0 mph /  3.2 km/h 5.0 mph /  8 km/h 91 % 0.00 in /  0 mm
13:52 69.6 °F /  20.9 °C 66.6 °F /  19.2 °C 30.02 in /  1016.5 hPa South 3.0 mph /  4.8 km/h 5.0 mph /  8 km/h 90 % 0.00 in /  0 mm
13:57 70.0 °F /  21.1 °C 66.6 °F /  19.2 °C 30.02 in /  1016.5 hPa ESE 4.0 mph /  6.4 km/h 5.0 mph /  8 km/h 89 % 0.00 in /  0 mm
14:02 70.2 °F /  21.2 °C 66.7 °F /  19.3 °C 30.01 in /  1016.1 hPa SSE 3.0 mph /  4.8 km/h 5.0 mph /  8 km/h 89 % 0.00 in /  0 mm
14:07 70.3 °F /  21.3 °C 66.6 °F /  19.2 °C 30.01 in /  1016.1 hPa SSE 2.0 mph /  3.2 km/h 5.0 mph /  8 km/h 88 % 0.00 in /  0 mm
14:12 70.9 °F /  21.6 °C 67.1 °F /  19.5 °C 30.01 in /  1016.1 hPa ESE 1.0 mph /  1.6 km/h 5.0 mph /  8 km/h 88 % 0.00 in /  0 mm
14:17 72.0 °F /  22.2 °C 68.2 °F /  20.1 °C 30.01 in /  1016.1 hPa SSW 2.0 mph /  3.2 km/h 5.0 mph /  8 km/h 88 % 0.00 in /  0 mm
14:22 72.5 °F /  22.5 °C 67.5 °F /  19.7 °C 30.01 in /  1016.1 hPa SSE 3.0 mph /  4.8 km/h 5.0 mph /  8 km/h 84 % 0.00 in /  0 mm
14:27 72.7 °F /  22.6 °C 67.6 °F /  19.8 °C 30.01 in /  1016.1 hPa ESE 4.0 mph /  6.4 km/h 7.0 mph /  11.3 km/h 84 % 0.00 in /  0 mm
14:32 72.3 °F /  22.4 °C 67.3 °F /  19.6 °C 30.01 in /  1016.1 hPa SSE 1.0 mph /  1.6 km/h 7.0 mph /  11.3 km/h 84 % 0.00 in /  0 mm
14:37 72.1 °F /  22.3 °C 67.1 °F /  19.5 °C 30.00 in /  1015.8 hPa SSE 2.0 mph /  3.2 km/h 7.0 mph /  11.3 km/h 84 % 0.00 in /  0 mm
14:42 72.1 °F /  22.3 °C 67.5 °F /  19.7 °C 30.00 in /  1015.8 hPa ENE 3.0 mph /  4.8 km/h 5.0 mph /  8 km/h 85 % 0.00 in /  0 mm
14:47 72.3 °F /  22.4 °C 67.3 °F /  19.6 °C 30.00 in /  1015.8 hPa ESE 2.0 mph /  3.2 km/h 5.0 mph /  8 km/h 84 % 0.00 in /  0 mm
14:52 72.3 °F /  22.4 °C 67.6 °F /  19.8 °C 30.00 in /  1015.8 hPa SE 3.0 mph /  4.8 km/h 5.0 mph /  8 km/h 85 % 0.00 in /  0 mm
14:57 72.5 °F /  22.5 °C 67.5 °F /  19.7 °C 29.99 in /  1015.5 hPa Calm   5.0 mph /  8 km/h 84 % 0.00 in /  0 mm
15:02 72.9 °F /  22.7 °C 67.8 °F /  19.9 °C 29.99 in /  1015.5 hPa South 4.0 mph /  6.4 km/h 5.0 mph /  8 km/h 84 % 0.00 in /  0 mm
15:07 72.9 °F /  22.7 °C 67.5 °F /  19.7 °C 29.99 in /  1015.5 hPa East 4.0 mph /  6.4 km/h 6.0 mph /  9.7 km/h 83 % 0.00 in /  0 mm
15:12 72.5 °F /  22.5 °C 67.5 °F /  19.7 °C 29.99 in /  1015.5 hPa SE 1.0 mph /  1.6 km/h 6.0 mph /  9.7 km/h 84 % 0.00 in /  0 mm
15:17 72.7 °F /  22.6 °C 67.8 °F /  19.9 °C 29.99 in /  1015.5 hPa SE 4.0 mph /  6.4 km/h 6.0 mph /  9.7 km/h 85 % 0.00 in /  0 mm
15:29 72.5 °F /  22.5 °C 67.1 °F /  19.5 °C 29.99 in /  1015.5 hPa ENE 5.0 mph /  8 km/h 7.0 mph /  11.3 km/h 83 % 0.00 in /  0 mm
15:34 72.0 °F /  22.2 °C 66.9 °F /  19.4 °C 29.99 in /  1015.5 hPa East 1.0 mph /  1.6 km/h 7.0 mph /  11.3 km/h 84 % 0.00 in /  0 mm
15:39 71.4 °F /  21.9 °C 66.7 °F /  19.3 °C 29.99 in /  1015.5 hPa SE 1.0 mph /  1.6 km/h 7.0 mph /  11.3 km/h 85 % 0.00 in /  0 mm
15:44 71.4 °F /  21.9 °C 67.1 °F /  19.5 °C 29.99 in /  1015.5 hPa ESE 3.0 mph /  4.8 km/h 6.0 mph /  9.7 km/h 86 % 0.00 in /  0 mm
15:49 71.2 °F /  21.8 °C 67.1 °F /  19.5 °C 29.99 in /  1015.5 hPa ESE 2.0 mph /  3.2 km/h 6.0 mph /  9.7 km/h 87 % 0.00 in /  0 mm
15:54 71.1 °F /  21.7 °C 66.9 °F /  19.4 °C 29.99 in /  1015.5 hPa ESE 2.0 mph /  3.2 km/h 6.0 mph /  9.7 km/h 87 % 0.00 in /  0 mm
15:59 71.2 °F /  21.8 °C 67.5 °F /  19.7 °C 29.99 in /  1015.5 hPa SSE 2.0 mph /  3.2 km/h 5.0 mph /  8 km/h 88 % 0.00 in /  0 mm
16:04 72.0 °F /  22.2 °C 67.8 °F /  19.9 °C 29.99 in /  1015.5 hPa ESE 4.0 mph /  6.4 km/h 4.0 mph /  6.4 km/h 87 % 0.00 in /  0 mm
16:09 72.7 °F /  22.6 °C 67.6 °F /  19.8 °C 29.99 in /  1015.5 hPa South 4.0 mph /  6.4 km/h 8.0 mph /  12.9 km/h 84 % 0.00 in /  0 mm
16:14 73.2 °F /  22.9 °C 67.5 °F /  19.7 °C 29.99 in /  1015.5 hPa SSW 4.0 mph /  6.4 km/h 8.0 mph /  12.9 km/h 82 % 0.00 in /  0 mm
16:19 73.9 °F /  23.3 °C 67.5 °F /  19.7 °C 29.99 in /  1015.5 hPa SSW 4.0 mph /  6.4 km/h 8.0 mph /  12.9 km/h 80 % 0.00 in /  0 mm
16:24 73.8 °F /  23.2 °C 66.9 °F /  19.4 °C 29.99 in /  1015.5 hPa SSE 4.0 mph /  6.4 km/h 8.0 mph /  12.9 km/h 79 % 0.00 in /  0 mm
16:29 73.2 °F /  22.9 °C 66.7 °F /  19.3 °C 29.99 in /  1015.5 hPa ESE 6.0 mph /  9.7 km/h 10.0 mph /  16.1 km/h 80 % 0.00 in /  0 mm
16:34 72.9 °F /  22.7 °C 66.7 °F /  19.3 °C 29.99 in /  1015.5 hPa South 7.0 mph /  11.3 km/h 11.0 mph /  17.7 km/h 81 % 0.00 in /  0 mm
16:39 72.7 °F /  22.6 °C 66.6 °F /  19.2 °C 30.00 in /  1015.8 hPa SSE 2.0 mph /  3.2 km/h 11.0 mph /  17.7 km/h 81 % 0.00 in /  0 mm
16:44 72.7 °F /  22.6 °C 66.9 °F /  19.4 °C 30.00 in /  1015.8 hPa SSW 4.0 mph /  6.4 km/h 11.0 mph /  17.7 km/h 82 % 0.00 in /  0 mm
16:50 72.5 °F /  22.5 °C 66.4 °F /  19.1 °C 30.00 in /  1015.8 hPa SSE 3.0 mph /  4.8 km/h 11.0 mph /  17.7 km/h 81 % 0.00 in /  0 mm
16:55 72.5 °F /  22.5 °C 66.4 °F /  19.1 °C 30.00 in /  1015.8 hPa SSE 5.0 mph /  8 km/h 7.0 mph /  11.3 km/h 81 % 0.00 in /  0 mm
17:00 72.3 °F /  22.4 °C 66.2 °F /  19 °C 30.00 in /  1015.8 hPa SSE 2.0 mph /  3.2 km/h 9.0 mph /  14.5 km/h 81 % 0.00 in /  0 mm
17:05 72.1 °F /  22.3 °C 66.0 °F /  18.9 °C 30.00 in /  1015.8 hPa South 6.0 mph /  9.7 km/h 9.0 mph /  14.5 km/h 81 % 0.00 in /  0 mm
17:10 72.1 °F /  22.3 °C 66.0 °F /  18.9 °C 30.00 in /  1015.8 hPa SSW 4.0 mph /  6.4 km/h 9.0 mph /  14.5 km/h 81 % 0.00 in /  0 mm
17:15 72.0 °F /  22.2 °C 65.5 °F /  18.6 °C 30.00 in /  1015.8 hPa SSE 5.0 mph /  8 km/h 9.0 mph /  14.5 km/h 80 % 0.00 in /  0 mm
17:20 71.8 °F /  22.1 °C 65.3 °F /  18.5 °C 30.00 in /  1015.8 hPa SSW 4.0 mph /  6.4 km/h 9.0 mph /  14.5 km/h 80 % 0.00 in /  0 mm
17:25 71.6 °F /  22 °C 65.1 °F /  18.4 °C 30.00 in /  1015.8 hPa SSW 3.0 mph /  4.8 km/h 10.0 mph /  16.1 km/h 80 % 0.00 in /  0 mm
17:30 71.4 °F /  21.9 °C 65.3 °F /  18.5 °C 30.01 in /  1016.1 hPa SSE 2.0 mph /  3.2 km/h 10.0 mph /  16.1 km/h 81 % 0.00 in /  0 mm
17:35 71.2 °F /  21.8 °C 65.1 °F /  18.4 °C 30.00 in /  1015.8 hPa South 2.0 mph /  3.2 km/h 5.0 mph /  8 km/h 81 % 0.00 in /  0 mm
17:40 71.2 °F /  21.8 °C 65.5 °F /  18.6 °C 30.01 in /  1016.1 hPa SSW 1.0 mph /  1.6 km/h 4.0 mph /  6.4 km/h 82 % 0.00 in /  0 mm
17:45 71.1 °F /  21.7 °C 65.3 °F /  18.5 °C 30.01 in /  1016.1 hPa SSE 1.0 mph /  1.6 km/h 4.0 mph /  6.4 km/h 82 % 0.00 in /  0 mm
17:50 71.1 °F /  21.7 °C 66.0 °F /  18.9 °C 30.01 in /  1016.1 hPa SE 2.0 mph /  3.2 km/h 8.0 mph /  12.9 km/h 84 % 0.00 in /  0 mm
17:55 70.9 °F /  21.6 °C 65.8 °F /  18.8 °C 30.01 in /  1016.1 hPa SE 5.0 mph /  8 km/h 10.0 mph /  16.1 km/h 84 % 0.00 in /  0 mm
18:00 70.7 °F /  21.5 °C 66.0 °F /  18.9 °C 30.01 in /  1016.1 hPa SE 4.0 mph /  6.4 km/h 10.0 mph /  16.1 km/h 85 % 0.00 in /  0 mm
18:05 70.5 °F /  21.4 °C 65.8 °F /  18.8 °C 30.01 in /  1016.1 hPa South 5.0 mph /  8 km/h 10.0 mph /  16.1 km/h 85 % 0.00 in /  0 mm
18:10 70.3 °F /  21.3 °C 66.0 °F /  18.9 °C 30.01 in /  1016.1 hPa South 4.0 mph /  6.4 km/h 8.0 mph /  12.9 km/h 86 % 0.00 in /  0 mm
18:15 70.2 °F /  21.2 °C 65.8 °F /  18.8 °C 30.01 in /  1016.1 hPa ESE 6.0 mph /  9.7 km/h 8.0 mph /  12.9 km/h 86 % 0.00 in /  0 mm
18:20 70.0 °F /  21.1 °C 66.0 °F /  18.9 °C 30.01 in /  1016.1 hPa SSE 2.0 mph /  3.2 km/h 8.0 mph /  12.9 km/h 87 % 0.00 in /  0 mm
18:25 70.0 °F /  21.1 °C 66.0 °F /  18.9 °C 30.01 in /  1016.1 hPa SSE 8.0 mph /  12.9 km/h 8.0 mph /  12.9 km/h 87 % 0.00 in /  0 mm
18:30 69.8 °F /  21 °C 65.8 °F /  18.8 °C 30.02 in /  1016.5 hPa SSE 5.0 mph /  8 km/h 8.0 mph /  12.9 km/h 87 % 0.00 in /  0 mm
18:35 69.6 °F /  20.9 °C 65.7 °F /  18.7 °C 30.02 in /  1016.5 hPa South 4.0 mph /  6.4 km/h 8.0 mph /  12.9 km/h 87 % 0.00 in /  0 mm
18:40 69.4 °F /  20.8 °C 65.7 °F /  18.7 °C 30.02 in /  1016.5 hPa South 1.0 mph /  1.6 km/h 8.0 mph /  12.9 km/h 88 % 0.00 in /  0 mm
18:46 69.3 °F /  20.7 °C 65.5 °F /  18.6 °C 30.02 in /  1016.5 hPa SSE 2.0 mph /  3.2 km/h 5.0 mph /  8 km/h 88 % 0.00 in /  0 mm
18:51 69.3 °F /  20.7 °C 65.8 °F /  18.8 °C 30.02 in /  1016.5 hPa SSE 3.0 mph /  4.8 km/h 5.0 mph /  8 km/h 89 % 0.00 in /  0 mm
18:56 69.1 °F /  20.6 °C 65.7 °F /  18.7 °C 30.02 in /  1016.5 hPa SE 1.0 mph /  1.6 km/h 5.0 mph /  8 km/h 89 % 0.00 in /  0 mm
19:01 69.1 °F /  20.6 °C 65.7 °F /  18.7 °C 30.03 in /  1016.8 hPa SE 2.0 mph /  3.2 km/h 5.0 mph /  8 km/h 89 % 0.00 in /  0 mm
19:06 68.9 °F /  20.5 °C 65.8 °F /  18.8 °C 30.03 in /  1016.8 hPa SE 5.0 mph /  8 km/h 7.0 mph /  11.3 km/h 90 % 0.00 in /  0 mm
19:11 68.7 °F /  20.4 °C 65.7 °F /  18.7 °C 30.02 in /  1016.5 hPa SE 3.0 mph /  4.8 km/h 7.0 mph /  11.3 km/h 90 % 0.00 in /  0 mm
19:16 68.5 °F /  20.3 °C 65.8 °F /  18.8 °C 30.03 in /  1016.8 hPa SE 3.0 mph /  4.8 km/h 7.0 mph /  11.3 km/h 91 % 0.00 in /  0 mm
19:21 68.4 °F /  20.2 °C 65.7 °F /  18.7 °C 30.03 in /  1016.8 hPa South 2.0 mph /  3.2 km/h 8.0 mph /  12.9 km/h 91 % 0.00 in /  0 mm
19:26 68.2 °F /  20.1 °C 65.8 °F /  18.8 °C 30.03 in /  1016.8 hPa SE 3.0 mph /  4.8 km/h 9.0 mph /  14.5 km/h 92 % 0.00 in /  0 mm
19:31 67.8 °F /  19.9 °C 65.5 °F /  18.6 °C 30.03 in /  1016.8 hPa SSE 2.0 mph /  3.2 km/h 9.0 mph /  14.5 km/h 92 % 0.00 in /  0 mm
19:36 67.6 °F /  19.8 °C 65.5 °F /  18.6 °C 30.03 in /  1016.8 hPa SE 3.0 mph /  4.8 km/h 9.0 mph /  14.5 km/h 93 % 0.00 in /  0 mm
19:41 67.5 °F /  19.7 °C 65.3 °F /  18.5 °C 30.03 in /  1016.8 hPa East 3.0 mph /  4.8 km/h 7.0 mph /  11.3 km/h 93 % 0.00 in /  0 mm
19:46 67.3 °F /  19.6 °C 65.1 °F /  18.4 °C 30.03 in /  1016.8 hPa SE 2.0 mph /  3.2 km/h 7.0 mph /  11.3 km/h 93 % 0.00 in /  0 mm
19:51 67.1 °F /  19.5 °C 64.9 °F /  18.3 °C 30.03 in /  1016.8 hPa SE 1.0 mph /  1.6 km/h 6.0 mph /  9.7 km/h 93 % 0.00 in /  0 mm
19:56 66.9 °F /  19.4 °C 65.1 °F /  18.4 °C 30.03 in /  1016.8 hPa ESE 4.0 mph /  6.4 km/h 6.0 mph /  9.7 km/h 94 % 0.00 in /  0 mm
20:01 66.7 °F /  19.3 °C 64.9 °F /  18.3 °C 30.03 in /  1016.8 hPa East 4.0 mph /  6.4 km/h 6.0 mph /  9.7 km/h 94 % 0.00 in /  0 mm
20:06 66.6 °F /  19.2 °C 64.8 °F /  18.2 °C 30.03 in /  1016.8 hPa SE 5.0 mph /  8 km/h 6.0 mph /  9.7 km/h 94 % 0.00 in /  0 mm
20:11 66.6 °F /  19.2 °C 65.1 °F /  18.4 °C 30.03 in /  1016.8 hPa SE 1.0 mph /  1.6 km/h 9.0 mph /  14.5 km/h 95 % 0.00 in /  0 mm
20:16 66.4 °F /  19.1 °C 64.9 °F /  18.3 °C 30.03 in /  1016.8 hPa SE 5.0 mph /  8 km/h 9.0 mph /  14.5 km/h 95 % 0.00 in /  0 mm
20:21 66.4 °F /  19.1 °C 64.9 °F /  18.3 °C 30.03 in /  1016.8 hPa SE 3.0 mph /  4.8 km/h 10.0 mph /  16.1 km/h 95 % 0.00 in /  0 mm
20:26 66.4 °F /  19.1 °C 65.1 °F /  18.4 °C 30.03 in /  1016.8 hPa ESE 3.0 mph /  4.8 km/h 10.0 mph /  16.1 km/h 96 % 0.00 in /  0 mm
20:31 66.4 °F /  19.1 °C 65.1 °F /  18.4 °C 30.03 in /  1016.8 hPa SSE 6.0 mph /  9.7 km/h 10.0 mph /  16.1 km/h 96 % 0.00 in /  0 mm
20:36 66.4 °F /  19.1 °C 65.1 °F /  18.4 °C 30.03 in /  1016.8 hPa ESE 1.0 mph /  1.6 km/h 7.0 mph /  11.3 km/h 96 % 0.00 in /  0 mm
20:42 66.4 °F /  19.1 °C 65.1 °F /  18.4 °C 30.03 in /  1016.8 hPa SE 4.0 mph /  6.4 km/h 6.0 mph /  9.7 km/h 96 % 0.00 in /  0 mm
20:47 66.4 °F /  19.1 °C 65.1 °F /  18.4 °C 30.02 in /  1016.5 hPa East 7.0 mph /  11.3 km/h 7.0 mph /  11.3 km/h 96 % 0.00 in /  0 mm
20:52 66.4 °F /  19.1 °C 65.1 °F /  18.4 °C 30.02 in /  1016.5 hPa SSE 3.0 mph /  4.8 km/h 10.0 mph /  16.1 km/h 96 % 0.00 in /  0 mm
20:57 66.4 °F /  19.1 °C 65.1 °F /  18.4 °C 30.02 in /  1016.5 hPa SSE 4.0 mph /  6.4 km/h 10.0 mph /  16.1 km/h 96 % 0.00 in /  0 mm
21:02 66.4 °F /  19.1 °C 65.1 °F /  18.4 °C 30.02 in /  1016.5 hPa SSE 4.0 mph /  6.4 km/h 10.0 mph /  16.1 km/h 96 % 0.00 in /  0 mm
21:07 66.4 °F /  19.1 °C 65.1 °F /  18.4 °C 30.02 in /  1016.5 hPa SE 4.0 mph /  6.4 km/h 6.0 mph /  9.7 km/h 96 % 0.00 in /  0 mm
21:12 66.4 °F /  19.1 °C 65.1 °F /  18.4 °C 30.02 in /  1016.5 hPa SE 3.0 mph /  4.8 km/h 10.0 mph /  16.1 km/h 96 % 0.00 in /  0 mm
21:17 66.4 °F /  19.1 °C 65.1 °F /  18.4 °C 30.02 in /  1016.5 hPa SE 3.0 mph /  4.8 km/h 10.0 mph /  16.1 km/h 96 % 0.00 in /  0 mm
21:22 66.4 °F /  19.1 °C 65.5 °F /  18.6 °C 30.02 in /  1016.5 hPa ESE 2.0 mph /  3.2 km/h 10.0 mph /  16.1 km/h 97 % 0.00 in /  0 mm
21:27 66.4 °F /  19.1 °C 65.5 °F /  18.6 °C 30.02 in /  1016.5 hPa SSE 7.0 mph /  11.3 km/h 7.0 mph /  11.3 km/h 97 % 0.00 in /  0 mm
21:32 66.4 °F /  19.1 °C 65.5 °F /  18.6 °C 30.02 in /  1016.5 hPa SSE 7.0 mph /  11.3 km/h 11.0 mph /  17.7 km/h 97 % 0.00 in /  0 mm
21:37 66.4 °F /  19.1 °C 65.5 °F /  18.6 °C 30.02 in /  1016.5 hPa SE 5.0 mph /  8 km/h 11.0 mph /  17.7 km/h 97 % 0.00 in /  0 mm
21:42 66.4 °F /  19.1 °C 65.5 °F /  18.6 °C 30.02 in /  1016.5 hPa SSE 6.0 mph /  9.7 km/h 11.0 mph /  17.7 km/h 97 % 0.00 in /  0 mm
21:47 66.4 °F /  19.1 °C 65.5 °F /  18.6 °C 30.02 in /  1016.5 hPa SE 6.0 mph /  9.7 km/h 9.0 mph /  14.5 km/h 97 % 0.00 in /  0 mm
21:52 66.6 °F /  19.2 °C 65.7 °F /  18.7 °C 30.02 in /  1016.5 hPa South 9.0 mph /  14.5 km/h 9.0 mph /  14.5 km/h 97 % 0.00 in /  0 mm
21:57 66.6 °F /  19.2 °C 65.7 °F /  18.7 °C 30.02 in /  1016.5 hPa South 4.0 mph /  6.4 km/h 9.0 mph /  14.5 km/h 97 % 0.00 in /  0 mm
22:02 66.6 °F /  19.2 °C 65.7 °F /  18.7 °C 30.02 in /  1016.5 hPa SSE 3.0 mph /  4.8 km/h 9.0 mph /  14.5 km/h 97 % 0.00 in /  0 mm
22:07 66.6 °F /  19.2 °C 65.7 °F /  18.7 °C 30.02 in /  1016.5 hPa SSE 5.0 mph /  8 km/h 9.0 mph /  14.5 km/h 97 % 0.00 in /  0 mm
22:12 66.6 °F /  19.2 °C 65.3 °F /  18.5 °C 30.02 in /  1016.5 hPa SSE 5.0 mph /  8 km/h 9.0 mph /  14.5 km/h 96 % 0.00 in /  0 mm
22:17 66.4 °F /  19.1 °C 65.1 °F /  18.4 °C 30.02 in /  1016.5 hPa South 7.0 mph /  11.3 km/h 9.0 mph /  14.5 km/h 96 % 0.00 in /  0 mm
22:22 66.4 °F /  19.1 °C 65.1 °F /  18.4 °C 30.02 in /  1016.5 hPa South 2.0 mph /  3.2 km/h 9.0 mph /  14.5 km/h 96 % 0.00 in /  0 mm
22:27 66.4 °F /  19.1 °C 65.1 °F /  18.4 °C 30.02 in /  1016.5 hPa SE 5.0 mph /  8 km/h 9.0 mph /  14.5 km/h 96 % 0.00 in /  0 mm
22:32 66.4 °F /  19.1 °C 65.5 °F /  18.6 °C 30.02 in /  1016.5 hPa South 8.0 mph /  12.9 km/h 9.0 mph /  14.5 km/h 97 % 0.00 in /  0 mm
22:37 66.4 °F /  19.1 °C 65.1 °F /  18.4 °C 30.02 in /  1016.5 hPa SE 3.0 mph /  4.8 km/h 9.0 mph /  14.5 km/h 96 % 0.00 in /  0 mm
22:42 66.6 °F /  19.2 °C 65.7 °F /  18.7 °C 30.02 in /  1016.5 hPa ESE 5.0 mph /  8 km/h 12.0 mph /  19.3 km/h 97 % 0.00 in /  0 mm
22:47 66.6 °F /  19.2 °C 65.7 °F /  18.7 °C 30.02 in /  1016.5 hPa SSE 7.0 mph /  11.3 km/h 12.0 mph /  19.3 km/h 97 % 0.00 in /  0 mm
22:52 66.6 °F /  19.2 °C 65.3 °F /  18.5 °C 30.02 in /  1016.5 hPa South 5.0 mph /  8 km/h 12.0 mph /  19.3 km/h 96 % 0.00 in /  0 mm
22:57 66.6 °F /  19.2 °C 65.3 °F /  18.5 °C 30.02 in /  1016.5 hPa SE 5.0 mph /  8 km/h 11.0 mph /  17.7 km/h 96 % 0.00 in /  0 mm
23:02 66.7 °F /  19.3 °C 65.5 °F /  18.6 °C 30.02 in /  1016.5 hPa SSE 7.0 mph /  11.3 km/h 12.0 mph /  19.3 km/h 96 % 0.00 in /  0 mm
23:07 66.7 °F /  19.3 °C 65.5 °F /  18.6 °C 30.02 in /  1016.5 hPa SE 5.0 mph /  8 km/h 12.0 mph /  19.3 km/h 96 % 0.00 in /  0 mm
23:12 66.7 °F /  19.3 °C 65.5 °F /  18.6 °C 30.03 in /  1016.8 hPa SSE 4.0 mph /  6.4 km/h 12.0 mph /  19.3 km/h 96 % 0.00 in /  0 mm
23:17 66.7 °F /  19.3 °C 65.5 °F /  18.6 °C 30.02 in /  1016.5 hPa SE 5.0 mph /  8 km/h 10.0 mph /  16.1 km/h 96 % 0.00 in /  0 mm
23:22 66.7 °F /  19.3 °C 65.5 °F /  18.6 °C 30.03 in /  1016.8 hPa SW 6.0 mph /  9.7 km/h 10.0 mph /  16.1 km/h 96 % 0.00 in /  0 mm
23:27 66.7 °F /  19.3 °C 65.5 °F /  18.6 °C 30.03 in /  1016.8 hPa ESE 4.0 mph /  6.4 km/h 9.0 mph /  14.5 km/h 96 % 0.00 in /  0 mm
23:32 66.7 °F /  19.3 °C 65.5 °F /  18.6 °C 30.03 in /  1016.8 hPa SSE 6.0 mph /  9.7 km/h 11.0 mph /  17.7 km/h 96 % 0.00 in /  0 mm
23:37 66.7 °F /  19.3 °C 65.5 °F /  18.6 °C 30.03 in /  1016.8 hPa South 2.0 mph /  3.2 km/h 11.0 mph /  17.7 km/h 96 % 0.00 in /  0 mm
23:42 66.7 °F /  19.3 °C 65.5 °F /  18.6 °C 30.03 in /  1016.8 hPa South 7.0 mph /  11.3 km/h 11.0 mph /  17.7 km/h 96 % 0.00 in /  0 mm
23:47 66.7 °F /  19.3 °C 65.5 °F /  18.6 °C 30.03 in /  1016.8 hPa SE 6.0 mph /  9.7 km/h 11.0 mph /  17.7 km/h 96 % 0.00 in /  0 mm
23:52 66.9 °F /  19.4 °C 65.7 °F /  18.7 °C 30.03 in /  1016.8 hPa SSE 10.0 mph /  16.1 km/h 13.0 mph /  20.9 km/h 96 % 0.00 in /  0 mm
Spring, Texas: Villages of Bridgestone
Compliments of Weather Underground - 3 mb

Script developed by  Jim McMurry - jmcmurry@mwt.net Adapted for the template by  Wim van der Kuil - Leuven-Template.eu

You find our weather info also at:

UK Metoffice

WeatherCloud

Weather Underground

Mid-South Weather Network

AWEKAS

Citizen Weather Observer Program (CWOP)

HAMweather, WeatherForYou, PWS Weather

Equipment we use:

Weather-station
Davis Vantage Vue

Weather-program
Meteohub

Weather-server
Debian 7.9 x86 (Guest)

Provider
DreamHost

Davis Vantage Vue

Meteohub

Debian 7.9 x86 (Guest)

DreamHost